Shreveport, LA

10:57 AM CDT on May 25, 2017 (GMT -0500)
Shreveport Regional

Weather History for KSHV - January, 2014

Change the Weather History Date:

Monday, January 20, 2014

  Actual Average Record
Temperature  
Mean Temperature 54 °F 47 °F  
Max Temperature 74 °F 57 °F 81 °F (1954)
Min Temperature 34 °F 36 °F 12 °F (1985)
Degree Days  
Heating Degree Days 11 18  
Month to date heating degree days 400 377  
Since 1 July heating degree days 1370 1279  
Cooling Degree Days 0 0  
Month to date cooling degree days 0 0  
Year to date cooling degree days 0 0  
Growing Degree Days 4 (Base 50)    
Moisture  
Dew Point 38 °F    
Average Humidity 54    
Maximum Humidity 72    
Minimum Humidity 35    
Precipitation  
Precipitation 0.00 in 0.14 in 3.15 in (1935)
Month to date precipitation 0.82 2.59  
Year to date precipitation 0.82 2.59  
Snow  
Snow 0.00 in - - ()
Month to date snowfall 0.0  
Since 1 July snowfall T  
Snow Depth 0.00 in    
Sea Level Pressure  
Sea Level Pressure 29.98 in    
Wind  
Wind Speed 8 mph (SW)    
Max Wind Speed 21 mph    
Max Gust Speed 29 mph    
Visibility 10 miles    
Events      
T = Trace of Precipitation, MM = Missing Value Source: NWS Daily Summary

Daily Weather History Graph

Daily Weather History Graph

Search for Another Location

Airport or City:

Trip Planner

Search our weather history database for the weather conditions in past years. The results will help you decide how hot, cold, wet, or windy it might be!

Date:

Astronomy

Jan. 20, 2014 Rise Set
Actual Time 7:15 AM CST 5:37 PM CST
Civil Twilight 6:49 AM CST 6:03 PM CST
Nautical Twilight 6:19 AM CST 6:33 PM CST
Astronomical Twilight 5:50 AM CST 7:03 PM CST
Moon 9:54 PM CST (1/20) 9:30 AM CST (1/20)
Length of Visible Light 11h 14m
Length of Day
10h 21m
Waning Gibbous, 82% of the Moon is Illuminated
Jan 20
Waning Gibbous
Jan 23
Last Quarter
Jan 30
New
Feb 6
First Quarter
Feb 14
Full

Hourly Weather History & Observations

Time (CST) Temp. Windchill Dew Point Humidity Pressure Visibility Wind Dir Wind Speed Gust Speed Precip Events Conditions
12:56 AM 36.0 °F - 26.1 °F 67% 30.08 in 10.0 mi Calm Calm - N/A   Clear
1:56 AM 35.1 °F - 25.0 °F 67% 30.06 in 10.0 mi Calm Calm - N/A   Clear
2:56 AM 37.0 °F - 26.1 °F 65% 30.05 in 10.0 mi Calm Calm - N/A   Clear
3:56 AM 39.9 °F 35.8 °F 27.0 °F 60% 30.03 in 10.0 mi SSW 5.8 mph - N/A   Clear
4:56 AM 37.0 °F 33.3 °F 26.1 °F 65% 30.01 in 10.0 mi South 4.6 mph - N/A   Clear
5:56 AM 37.0 °F 32.4 °F 27.0 °F 67% 30.01 in 10.0 mi South 5.8 mph - N/A   Clear
6:56 AM 41.0 °F 37.1 °F 28.0 °F 60% 30.00 in 10.0 mi SSW 5.8 mph - N/A   Partly Cloudy
7:56 AM 44.1 °F 39.0 °F 28.9 °F 55% 30.01 in 10.0 mi SW 9.2 mph - N/A   Partly Cloudy
8:56 AM 50.0 °F - 33.1 °F 52% 30.01 in 10.0 mi SSW 9.2 mph - N/A   Partly Cloudy
9:56 AM 59.0 °F - 37.9 °F 46% 30.02 in 10.0 mi SSW 4.6 mph - N/A   Partly Cloudy
10:56 AM 64.0 °F - 43.0 °F 46% 30.00 in 10.0 mi SW 11.5 mph - N/A   Partly Cloudy
11:56 AM 68.0 °F - 44.1 °F 42% 29.97 in 10.0 mi SW 15.0 mph - N/A   Partly Cloudy
12:56 PM 72.0 °F - 43.0 °F 35% 29.91 in 10.0 mi SW 13.8 mph 26.5 mph N/A   Partly Cloudy
1:56 PM 73.0 °F - 45.0 °F 37% 29.88 in 10.0 mi WSW 16.1 mph 21.9 mph N/A   Partly Cloudy
2:56 PM 73.9 °F - 46.0 °F 37% 29.86 in 10.0 mi SW 12.7 mph - N/A   Partly Cloudy
3:56 PM 72.0 °F - 48.0 °F 43% 29.86 in 10.0 mi South 8.1 mph - N/A   Partly Cloudy
4:56 PM 70.0 °F - 48.0 °F 46% 29.87 in 10.0 mi SW 9.2 mph - N/A   Partly Cloudy
5:56 PM 64.0 °F - 48.0 °F 56% 29.89 in 10.0 mi SW 3.5 mph - N/A   Clear
6:56 PM 57.0 °F - 46.9 °F 69% 29.92 in 10.0 mi Calm Calm - N/A   Scattered Clouds
7:56 PM 55.0 °F - 46.9 °F 74% 29.95 in 10.0 mi Calm Calm - N/A   Mostly Cloudy
8:56 PM 62.1 °F - 46.9 °F 58% 29.97 in 10.0 mi NW 12.7 mph - N/A   Partly Cloudy
9:56 PM 61.0 °F - 43.0 °F 52% 29.99 in 10.0 mi NNW 9.2 mph - N/A   Clear
10:56 PM 59.0 °F - 39.9 °F 49% 30.02 in 10.0 mi NNW 12.7 mph - N/A   Clear
11:56 PM 55.9 °F - 35.1 °F 45% 30.04 in 10.0 mi NNW 10.4 mph - N/A   Clear